Year,Month,Day,Hour,Minute,Value (Times are PST for temperature in C)
2016,12,04,10,22,3.10
2016,12,04,10,23,3.20
2016,12,04,10,24,3.20
2016,12,04,10,25,3.30
2016,12,04,10,26,3.30
2016,12,04,10,27,3.30
2016,12,04,10,28,3.40
2016,12,04,10,29,3.40
2016,12,04,10,30,3.50
2016,12,04,10,31,3.50
2016,12,04,10,32,3.50
2016,12,04,10,33,3.60
2016,12,04,10,34,3.60
2016,12,04,10,35,3.70
2016,12,04,10,36,3.70
2016,12,04,10,37,3.70
2016,12,04,10,38,3.70
2016,12,04,10,39,3.70
2016,12,04,10,40,3.80
2016,12,04,10,41,3.80
2016,12,04,10,42,3.80
2016,12,04,10,43,3.90
2016,12,04,10,44,3.90
2016,12,04,10,45,3.90
2016,12,04,10,46,4.00
2016,12,04,10,47,4.00
2016,12,04,10,48,4.10
2016,12,04,10,49,4.10
2016,12,04,10,50,4.20
2016,12,04,10,51,4.20
2016,12,04,10,52,4.30
2016,12,04,10,53,4.30
2016,12,04,10,54,4.40
2016,12,04,10,55,4.40
2016,12,04,10,56,4.50
2016,12,04,10,57,4.60
2016,12,04,10,58,4.60
2016,12,04,10,59,4.70
2016,12,04,11,00,4.70
2016,12,04,11,01,4.80
2016,12,04,11,02,4.80
2016,12,04,11,03,4.80
2016,12,04,11,04,4.80
2016,12,04,11,05,4.80
2016,12,04,11,06,4.80
2016,12,04,11,07,4.80
2016,12,04,11,08,4.80
2016,12,04,11,09,4.80
2016,12,04,11,10,4.80
2016,12,04,11,11,4.90
2016,12,04,11,12,4.90
2016,12,04,11,13,4.80
2016,12,04,11,14,4.80
2016,12,04,11,15,4.80
2016,12,04,11,16,4.80
2016,12,04,11,17,4.80
2016,12,04,11,18,4.90
2016,12,04,11,19,4.90
2016,12,04,11,20,4.90
2016,12,04,11,21,4.90
2016,12,04,11,22,5.00
2016,12,04,11,23,5.00
2016,12,04,11,24,5.10
2016,12,04,11,25,5.10
2016,12,04,11,26,5.10
2016,12,04,11,27,5.10
2016,12,04,11,28,5.10
2016,12,04,11,29,5.10
2016,12,04,11,30,5.20
2016,12,04,11,31,5.20
2016,12,04,11,32,5.20
2016,12,04,11,33,5.20
2016,12,04,11,34,5.20
2016,12,04,11,35,5.30
2016,12,04,11,36,5.30
2016,12,04,11,37,5.30
2016,12,04,11,38,5.30
2016,12,04,11,39,5.30
2016,12,04,11,40,5.30
2016,12,04,11,41,5.30
2016,12,04,11,42,5.40
2016,12,04,11,43,5.40
2016,12,04,11,44,5.50
2016,12,04,11,45,5.50
2016,12,04,11,46,5.50
2016,12,04,11,47,5.60
2016,12,04,11,48,5.60
2016,12,04,11,49,5.60
2016,12,04,11,50,5.60
2016,12,04,11,51,5.60
2016,12,04,11,52,5.70
2016,12,04,11,53,5.70
2016,12,04,11,54,5.70
2016,12,04,11,55,5.80
2016,12,04,11,56,5.80
2016,12,04,11,57,5.80
2016,12,04,11,58,5.90
2016,12,04,11,59,5.90
2016,12,04,12,00,5.90
2016,12,04,12,01,5.90
2016,12,04,12,02,5.90
2016,12,04,12,03,5.90
2016,12,04,12,04,6.00
2016,12,04,12,05,6.00
2016,12,04,12,06,6.00
2016,12,04,12,07,6.00
2016,12,04,12,08,6.10
2016,12,04,12,09,6.10
2016,12,04,12,10,6.10
2016,12,04,12,11,6.10
2016,12,04,12,12,6.20
2016,12,04,12,13,6.30
2016,12,04,12,14,6.30
2016,12,04,12,15,6.30
2016,12,04,12,16,6.30
2016,12,04,12,17,6.30
2016,12,04,12,18,6.30
2016,12,04,12,19,6.30
2016,12,04,12,20,6.30
2016,12,04,12,21,6.30
2016,12,04,12,22,6.30
2016,12,04,12,23,6.20
2016,12,04,12,24,6.20
2016,12,04,12,25,6.20
2016,12,04,12,26,6.20
2016,12,04,12,27,6.20
2016,12,04,12,28,6.20
2016,12,04,12,29,6.20
2016,12,04,12,30,6.10
2016,12,04,12,31,6.10
2016,12,04,12,32,6.10
2016,12,04,12,33,6.10
2016,12,04,12,34,6.10
2016,12,04,12,35,6.10
2016,12,04,12,36,6.10
2016,12,04,12,37,6.20
2016,12,04,12,38,6.20
2016,12,04,12,39,6.20
2016,12,04,12,40,6.20
2016,12,04,12,41,6.20
2016,12,04,12,42,6.20
2016,12,04,12,43,6.20
2016,12,04,12,44,6.20
2016,12,04,12,45,6.20
2016,12,04,12,46,6.20
2016,12,04,12,47,6.20
2016,12,04,12,48,6.20
2016,12,04,12,49,6.20
2016,12,04,12,50,6.30
2016,12,04,12,51,6.30
2016,12,04,12,52,6.30
2016,12,04,12,53,6.20
2016,12,04,12,54,6.30
2016,12,04,12,55,6.30
2016,12,04,12,56,6.30
2016,12,04,12,57,6.30
2016,12,04,12,58,6.30
2016,12,04,12,59,6.30
2016,12,04,13,00,6.30
2016,12,04,13,01,6.30
2016,12,04,13,02,6.20
2016,12,04,13,03,6.20
2016,12,04,13,04,6.20
2016,12,04,13,05,6.20
2016,12,04,13,06,6.30
2016,12,04,13,07,6.20
2016,12,04,13,08,6.20
2016,12,04,13,09,6.20
2016,12,04,13,10,6.30
2016,12,04,13,11,6.30
2016,12,04,13,12,6.20
2016,12,04,13,13,6.20
2016,12,04,13,14,6.20
2016,12,04,13,15,6.20
2016,12,04,13,16,6.20
2016,12,04,13,17,6.30
2016,12,04,13,18,6.30
2016,12,04,13,19,6.30
2016,12,04,13,20,6.30
2016,12,04,13,21,6.40
2016,12,04,13,22,6.40
2016,12,04,13,23,6.40
2016,12,04,13,24,6.50
2016,12,04,13,25,6.50
2016,12,04,13,26,6.60
2016,12,04,13,27,6.60
2016,12,04,13,28,6.60
2016,12,04,13,29,6.70
2016,12,04,13,30,6.70
2016,12,04,13,31,6.60
2016,12,04,13,32,6.70
2016,12,04,13,33,6.70
2016,12,04,13,34,6.70
2016,12,04,13,35,6.70
2016,12,04,13,36,6.70
2016,12,04,13,37,6.70
2016,12,04,13,38,6.70
2016,12,04,13,39,6.70
2016,12,04,13,40,6.70
2016,12,04,13,41,6.60
2016,12,04,13,42,6.60
2016,12,04,13,43,6.60
2016,12,04,13,44,6.60
2016,12,04,13,45,6.60
2016,12,04,13,46,6.60
2016,12,04,13,47,6.60
2016,12,04,13,48,6.50
2016,12,04,13,49,6.50
2016,12,04,13,50,6.50
2016,12,04,13,51,6.50
2016,12,04,13,52,6.50
2016,12,04,13,53,6.50
2016,12,04,13,54,6.50
2016,12,04,13,55,6.50
2016,12,04,13,56,6.50
2016,12,04,13,57,6.50
2016,12,04,13,58,6.50
2016,12,04,13,59,6.60
2016,12,04,14,00,6.60
2016,12,04,14,01,6.60
2016,12,04,14,02,6.70
2016,12,04,14,03,6.70
2016,12,04,14,04,6.70
2016,12,04,14,05,6.80
2016,12,04,14,06,6.80
2016,12,04,14,07,6.90
2016,12,04,14,08,6.90
2016,12,04,14,09,6.90
2016,12,04,14,10,7.00
2016,12,04,14,11,7.00
2016,12,04,14,12,7.00
2016,12,04,14,13,7.10
2016,12,04,14,14,7.10
2016,12,04,14,15,7.10
2016,12,04,14,16,7.20
2016,12,04,14,17,7.20
2016,12,04,14,18,7.30
2016,12,04,14,19,7.30
2016,12,04,14,20,7.30
2016,12,04,14,21,7.30
2016,12,04,14,22,7.30
2016,12,04,14,23,7.30
2016,12,04,14,24,7.30
2016,12,04,14,25,7.20
2016,12,04,14,26,7.20
2016,12,04,14,27,7.10
2016,12,04,14,28,7.10
2016,12,04,14,29,7.10
2016,12,04,14,30,7.00
2016,12,04,14,31,7.00
2016,12,04,14,32,6.90
2016,12,04,14,33,6.90
2016,12,04,14,34,6.90
2016,12,04,14,35,6.80
2016,12,04,14,36,6.80
2016,12,04,14,37,6.80
2016,12,04,14,38,6.80
2016,12,04,14,39,6.70
2016,12,04,14,40,6.70
2016,12,04,14,41,6.70
2016,12,04,14,42,6.70
2016,12,04,14,43,6.70
2016,12,04,14,44,6.60
2016,12,04,14,45,6.60
2016,12,04,14,46,6.60
2016,12,04,14,47,6.60
2016,12,04,14,48,6.60
2016,12,04,14,49,6.60
2016,12,04,14,50,6.60
2016,12,04,14,51,6.60
2016,12,04,14,52,6.60
2016,12,04,14,53,6.60
2016,12,04,14,54,6.60
2016,12,04,14,55,6.60
2016,12,04,14,56,6.60
2016,12,04,14,57,6.60
2016,12,04,14,58,6.60
2016,12,04,14,59,6.50
2016,12,04,15,00,6.50
2016,12,04,15,01,6.50
2016,12,04,15,02,6.50
2016,12,04,15,03,6.50
2016,12,04,15,04,6.50
2016,12,04,15,05,6.50
2016,12,04,15,06,6.50
2016,12,04,15,07,6.50
2016,12,04,15,08,6.50
2016,12,04,15,09,6.50
2016,12,04,15,10,6.50
2016,12,04,15,11,6.50
2016,12,04,15,12,6.50
2016,12,04,15,13,6.50
2016,12,04,15,14,6.50
2016,12,04,15,15,6.50
2016,12,04,15,16,6.50
2016,12,04,15,17,6.50
2016,12,04,15,18,6.40
2016,12,04,15,19,6.40
2016,12,04,15,20,6.40
2016,12,04,15,21,6.40
2016,12,04,15,22,6.40
2016,12,04,15,23,6.40
2016,12,04,15,24,6.40
2016,12,04,15,25,6.40
2016,12,04,15,26,6.40
2016,12,04,15,27,6.30
2016,12,04,15,28,6.30
2016,12,04,15,29,6.30
2016,12,04,15,30,6.30
2016,12,04,15,31,6.40
2016,12,04,15,32,6.40
2016,12,04,15,33,6.30
2016,12,04,15,34,6.30
2016,12,04,15,35,6.30
2016,12,04,15,36,6.30
2016,12,04,15,37,6.30
2016,12,04,15,38,6.30
2016,12,04,15,39,6.30
2016,12,04,15,40,6.30
2016,12,04,15,41,6.30
2016,12,04,15,42,6.30
2016,12,04,15,43,6.30
2016,12,04,15,44,6.30
2016,12,04,15,45,6.30
2016,12,04,15,46,6.30
